| time (UTC) | temp F | wind direction | speed MPH | gust MPH | rain 1hr in | rain 24hr in | rain mn in | humidity % | barometer mb |
| 20260508070021 | 60 | 340 | 6.0 | 14.0 | 0.00 | 2.49 | 0.00 | 85 | 1011.9 |
| 20260508065021 | 59 | 345 | 5.0 | 10.0 | 0.00 | 2.49 | 0.00 | 85 | 1012.0 |
| 20260508064021 | 59 | 355 | 6.0 | 10.0 | 0.00 | 2.49 | 0.00 | 86 | 1012.0 |
| 20260508063021 | 59 | 304 | 4.0 | 9.0 | 0.00 | 2.49 | 0.00 | 86 | 1012.2 |
| 20260508062021 | 59 | 350 | 5.0 | 9.0 | 0.00 | 2.49 | 0.00 | 85 | 1012.0 |
| 20260508061040 | 59 | 341 | 5.0 | 10.0 | 0.00 | 2.49 | 0.00 | 85 | 1011.6 |
| 20260508055041 | 58 | 347 | 6.0 | 10.0 | 0.00 | 2.49 | 0.00 | 86 | 1011.6 |
| 20260508054021 | 58 | 337 | 5.0 | 8.0 | 0.00 | 2.49 | 0.00 | 86 | 1011.6 |
| 20260508053020 | 58 | 323 | 3.0 | 8.0 | 0.00 | 2.49 | 0.00 | 86 | 1011.4 |
| 20260508052021 | 58 | 343 | 5.0 | 9.0 | 0.00 | 2.49 | 0.00 | 85 | 1011.2 |
| 20260508051020 | 58 | 340 | 5.0 | 9.0 | 0.00 | 2.49 | 0.00 | 85 | 1011.1 |
| 20260508050021 | 58 | 346 | 6.0 | 9.0 | 0.00 | 2.49 | 0.00 | 84 | 1010.9 |
| 20260508045020 | 58 | 341 | 5.0 | 10.0 | 0.00 | 2.49 | 0.00 | 83 | 1010.8 |
| 20260508044040 | 57 | 347 | 5.0 | 8.0 | 0.00 | 2.49 | 0.00 | 83 | 1010.9 |
| 20260508043020 | 58 | 341 | 4.0 | 10.0 | 0.00 | 2.49 | 0.00 | 82 | 1011.0 |
| 20260508042020 | 57 | 338 | 4.0 | 8.0 | 0.00 | 2.49 | 0.00 | 83 | 1010.8 |
| 20260508041021 | 57 | 340 | 4.0 | 8.0 | 0.00 | 2.49 | 0.00 | 82 | 1010.8 |
| 20260508040021 | 58 | 342 | 5.0 | 12.0 | 0.00 | 2.49 | 0.00 | 82 | 1010.8 |
| 20260508035021 | 58 | 343 | 8.0 | 14.0 | 0.00 | 2.49 | 0.00 | 82 | 1011.0 |
| 20260508034021 | 58 | 337 | 6.0 | 11.0 | 0.00 | 2.49 | 0.00 | 81 | 1010.8 |
| 20260508033041 | 57 | 340 | 7.0 | 14.0 | 0.00 | 2.49 | 0.00 | 82 | 1010.9 |
| 20260508032041 | 57 | 341 | 5.0 | 11.0 | 0.00 | 2.49 | 0.00 | 81 | 1010.9 |
| 20260508031041 | 57 | 336 | 5.0 | 10.0 | 0.00 | 2.49 | 0.00 | 82 | 1011.1 |
| 20260508030021 | 57 | 341 | 7.0 | 13.0 | 0.00 | 2.49 | 0.00 | 83 | 1010.9 |
| 20260508025021 | 56 | 346 | 7.0 | 15.0 | 0.00 | 2.49 | 0.00 | 84 | 1010.8 |
| 20260508024021 | 56 | 343 | 7.0 | 11.0 | 0.00 | 2.49 | 0.00 | 85 | 1011.1 |
| 20260508023021 | 55 | 338 | 6.0 | 12.0 | 0.00 | 2.49 | 0.00 | 86 | 1010.9 |
| 20260508022121 | 52 | 307 | 1.0 | 3.0 | 0.00 | 2.49 | 0.00 | 89 | 1011.1 |
| 20260508021021 | 52 | 32 | 1.0 | 3.0 | 0.00 | 2.49 | 0.00 | 90 | 1011.2 |
| 20260508020041 | 53 | 96 | 2.0 | 3.0 | 0.00 | 2.49 | 0.00 | 89 | 1011.2 |
| 20260508015021 | 53 | 114 | 0.0 | 3.0 | 0.00 | 2.49 | 0.00 | 86 | 1011.2 |
| 20260508014020 | 53 | 87 | 1.0 | 3.0 | 0.00 | 2.49 | 0.00 | 87 | 1011.4 |
| 20260508013021 | 53 | 112 | 1.0 | 3.0 | 0.00 | 2.49 | 0.00 | 86 | 1011.5 |
| 20260508012041 | 54 | 63 | 1.0 | 4.0 | 0.00 | 2.49 | 0.00 | 87 | 1011.6 |
| 20260508011041 | 54 | 100 | 2.0 | 3.0 | 0.00 | 2.49 | 0.00 | 83 | 1011.9 |
| 20260508010020 | 55 | 96 | 2.0 | 4.0 | 0.00 | 2.49 | 0.00 | 83 | 1011.9 |
| 20260508005021 | 55 | 99 | 2.0 | 4.0 | 0.00 | 2.49 | 0.00 | 81 | 1011.9 |
| 20260508004020 | 56 | 109 | 2.0 | 3.0 | 0.00 | 2.49 | 0.00 | 78 | 1011.9 |
| 20260508003021 | 58 | 322 | 2.0 | 6.0 | 0.00 | 2.49 | 0.00 | 73 | 1011.9 |
| 20260508002021 | 58 | 344 | 5.0 | 10.0 | 0.00 | 2.49 | 0.00 | 72 | 1011.8 |
| 20260508001020 | 58 | 336 | 5.0 | 10.0 | 0.00 | 2.49 | 0.00 | 71 | 1011.8 |
| 20260508000020 | 57 | 332 | 4.0 | 9.0 | 0.00 | 2.49 | 0.00 | 77 | 1011.9 |
| 20260507235020 | 57 | 321 | 3.0 | 7.0 | 0.00 | 2.49 | 0.00 | 77 | 1012.0 |
| 20260507234020 | 58 | 340 | 6.0 | 14.0 | 0.00 | 2.49 | 0.00 | 77 | 1012.0 |
| 20260507233020 | 57 | 325 | 4.0 | 11.0 | 0.00 | 2.49 | 0.00 | 78 | 1011.9 |
| 20260507232020 | 58 | 321 | 4.0 | 8.0 | 0.00 | 2.49 | 0.00 | 77 | 1012.0 |
| 20260507231021 | 58 | 326 | 4.0 | 9.0 | 0.00 | 2.49 | 0.00 | 80 | 1012.2 |
| 20260507230021 | 58 | 311 | 4.0 | 13.0 | 0.00 | 2.49 | 0.00 | 80 | 1012.2 |
| 20260507225021 | 57 | 334 | 6.0 | 12.0 | 0.00 | 2.49 | 0.00 | 82 | 1012.3 |
| 20260507224021 | 56 | 327 | 6.0 | 10.0 | 0.00 | 2.49 | 0.00 | 86 | 1012.3 |
| 20260507223021 | 56 | 315 | 4.0 | 10.0 | 0.00 | 2.49 | 0.00 | 87 | 1012.2 |
| 20260507222021 | 56 | 328 | 5.0 | 10.0 | 0.00 | 2.49 | 0.00 | 86 | 1012.1 |
| 20260507221021 | 56 | 324 | 4.0 | 10.0 | 0.00 | 2.49 | 0.00 | 86 | 1012.3 |
| 20260507220025 | 57 | 302 | 3.0 | 10.0 | 0.00 | 2.49 | 0.00 | 85 | 1012.5 |
| 20260507215021 | 57 | 330 | 8.0 | 13.0 | 0.00 | 2.49 | 2.49 | 84 | 1012.6 |
| 20260507214022 | 56 | 333 | 6.0 | 14.0 | 0.00 | 2.49 | 2.49 | 86 | 1012.6 |
| 20260507213021 | 56 | 335 | 7.0 | 14.0 | 0.00 | 2.49 | 2.49 | 86 | 1012.7 |
| 20260507212021 | 55 | 324 | 7.0 | 14.0 | 0.01 | 2.49 | 2.49 | 90 | 1012.6 |
| 20260507211041 | 55 | 338 | 7.0 | 13.0 | 0.01 | 2.49 | 2.49 | 91 | 1012.5 |
| 20260507210021 | 56 | 326 | 4.0 | 11.0 | 0.01 | 2.49 | 2.49 | 89 | 1012.4 |
| 20260507205020 | 55 | 332 | 6.0 | 11.0 | 0.01 | 2.49 | 2.49 | 92 | 1012.2 |
| 20260507204021 | 54 | 326 | 5.0 | 10.0 | 0.02 | 2.49 | 2.49 | 95 | 1011.9 |
| 20260507203021 | 54 | 337 | 4.0 | 9.0 | 0.03 | 2.49 | 2.49 | 96 | 1011.8 |
| 20260507202021 | 54 | 310 | 2.0 | 4.0 | 0.04 | 2.48 | 2.48 | 97 | 1011.7 |
| 20260507201041 | 54 | 309 | 1.0 | 4.0 | 0.07 | 2.48 | 2.48 | 97 | 1011.7 |
| 20260507200020 | 54 | 302 | 0.0 | 2.0 | 0.09 | 2.48 | 2.48 | 97 | 1011.6 |
| 20260507195041 | 54 | 184 | 0.0 | 2.0 | 0.13 | 2.48 | 2.48 | 96 | 1011.7 |
| 20260507194020 | 54 | 131 | 1.0 | 3.0 | 0.15 | 2.47 | 2.47 | 97 | 1011.7 |
| 20260507193021 | 54 | 140 | 1.0 | 4.0 | 0.18 | 2.46 | 2.46 | 97 | 1011.8 |
| 20260507192021 | 54 | 137 | 2.0 | 4.0 | 0.20 | 2.44 | 2.44 | 96 | 1011.9 |
| 20260507191020 | 54 | 52 | 0.0 | 3.0 | 0.20 | 2.41 | 2.41 | 96 | 1011.7 |
| 20260507190041 | 54 | 327 | 1.0 | 2.0 | 0.20 | 2.39 | 2.39 | 96 | 1011.6 |
| 20260507185035 | 54 | 109 | 2.0 | 3.0 | 0.19 | 2.35 | 2.35 | 96 | 1011.7 |
| 20260507184021 | 54 | 29 | 0.0 | 2.0 | 0.19 | 2.32 | 2.32 | 96 | 1011.7 |
| 20260507183021 | 54 | 191 | 1.0 | 3.0 | 0.21 | 2.28 | 2.28 | 97 | 1011.6 |
| 20260507182023 | 55 | 129 | 1.0 | 4.0 | 0.32 | 2.24 | 2.24 | 96 | 1011.6 |
| 20260507181021 | 55 | 207 | 2.0 | 4.0 | 0.46 | 2.21 | 2.21 | 96 | 1011.4 |
| 20260507180021 | 54 | 221 | 0.0 | 2.0 | 0.65 | 2.18 | 2.18 | 96 | 1011.2 |
| 20260507175021 | 55 | 78 | 1.0 | 5.0 | 0.85 | 2.16 | 2.16 | 96 | 1011.2 |
| 20260507174021 | 55 | 225 | 2.0 | 4.0 | 0.98 | 2.13 | 2.13 | 95 | 1011.0 |
| 20260507173021 | 55 | 217 | 1.0 | 4.0 | 1.11 | 2.06 | 2.06 | 95 | 1010.8 |
| 20260507172021 | 55 | 322 | 3.0 | 11.0 | 1.24 | 1.92 | 1.92 | 95 | 1010.4 |
| 20260507171021 | 55 | 217 | 3.0 | 5.0 | 1.53 | 1.75 | 1.75 | 95 | 1010.5 |
| 20260507170021 | 55 | 167 | 1.0 | 6.0 | 1.53 | 1.54 | 1.54 | 94 | 1010.8 |
| 20260507165021 | 55 | 194 | 4.0 | 8.0 | 1.31 | 1.31 | 1.31 | 94 | 1010.3 |
| 20260507164025 | 56 | 198 | 3.0 | 7.0 | 1.14 | 1.14 | 1.14 | 93 | 1010.4 |
| 20260507163025 | 55 | 154 | 2.0 | 10.0 | 0.95 | 0.95 | 0.95 | 88 | 1010.0 |
| 20260507162020 | 56 | 330 | 3.0 | 17.0 | 0.68 | 0.68 | 0.68 | 85 | 1010.1 |
| 20260507161020 | 62 | 121 | 3.0 | 6.0 | 0.22 | 0.22 | 0.22 | 87 | 1010.1 |
| 20260507160021 | 64 | 161 | 2.0 | 9.0 | 0.00 | 0.00 | 0.00 | 79 | 1009.4 |
| 20260507155020 | 64 | 188 | 2.0 | 6.0 | 0.00 | 0.00 | 0.00 | 78 | 1009.4 |
| 20260507154021 | 64 | 187 | 3.0 | 7.0 | 0.00 | 0.00 | 0.00 | 78 | 1009.4 |
| 20260507153020 | 65 | 168 | 3.0 | 12.0 | 0.00 | 0.00 | 0.00 | 76 | 1009.4 |
| 20260507152021 | 65 | 213 | 3.0 | 6.0 | 0.00 | 0.00 | 0.00 | 75 | 1009.5 |
| 20260507151041 | 65 | 238 | 3.0 | 6.0 | 0.00 | 0.00 | 0.00 | 74 | 1009.3 |
| 20260507150021 | 66 | 203 | 3.0 | 6.0 | 0.00 | 0.00 | 0.00 | 72 | 1009.4 |
| 20260507145020 | 66 | 202 | 4.0 | 7.0 | 0.00 | 0.00 | 0.00 | 71 | 1009.5 |
| 20260507144020 | 66 | 208 | 3.0 | 6.0 | 0.00 | 0.00 | 0.00 | 69 | 1009.6 |
| 20260507143020 | 67 | 228 | 3.0 | 6.0 | 0.00 | 0.00 | 0.00 | 69 | 1009.7 |
| 20260507142021 | 67 | 240 | 4.0 | 7.0 | 0.00 | 0.00 | 0.00 | 69 | 1009.7 |
| 20260507141020 | 67 | 213 | 4.0 | 6.0 | 0.00 | 0.00 | 0.00 | 70 | 1009.8 |
| 20260507140021 | 67 | 228 | 4.0 | 8.0 | 0.00 | 0.00 | 0.00 | 68 | 1009.9 |
| 20260507135021 | 68 | 220 | 5.0 | 7.0 | 0.00 | 0.00 | 0.00 | 65 | 1010.0 |
| 20260507134021 | 68 | 205 | 4.0 | 6.0 | 0.00 | 0.00 | 0.00 | 63 | 1010.2 |
| 20260507133021 | 70 | 210 | 5.0 | 8.0 | 0.00 | 0.00 | 0.00 | 64 | 1010.1 |
| 20260507132021 | 67 | 238 | 5.0 | 8.0 | 0.00 | 0.00 | 0.00 | 70 | 1010.3 |
| 20260507131026 | 67 | 201 | 4.0 | 10.0 | 0.00 | 0.00 | 0.00 | 71 | 1010.4 |
| 20260507130021 | 68 | 225 | 5.0 | 7.0 | 0.00 | 0.00 | 0.00 | 69 | 1010.5 |
| 20260507125021 | 67 | 222 | 4.0 | 7.0 | 0.00 | 0.00 | 0.00 | 69 | 1010.5 |
| 20260507124021 | 69 | 214 | 4.0 | 7.0 | 0.00 | 0.00 | 0.00 | 68 | 1010.6 |
| 20260507123021 | 68 | 229 | 4.0 | 8.0 | 0.00 | 0.00 | 0.00 | 69 | 1010.6 |
| 20260507122021 | 67 | 254 | 4.0 | 7.0 | 0.00 | 0.00 | 0.00 | 72 | 1010.7 |
| 20260507121021 | 67 | 226 | 3.0 | 8.0 | 0.00 | 0.00 | 0.00 | 72 | 1010.8 |
| 20260507120041 | 68 | 223 | 4.0 | 8.0 | 0.00 | 0.00 | 0.00 | 72 | 1011.0 |
| 20260507115041 | 68 | 240 | 4.0 | 8.0 | 0.00 | 0.00 | 0.00 | 69 | 1011.1 |
| 20260507114021 | 68 | 229 | 5.0 | 8.0 | 0.00 | 0.00 | 0.00 | 68 | 1011.0 |
| 20260507113021 | 68 | 230 | 3.0 | 6.0 | 0.00 | 0.00 | 0.00 | 68 | 1011.2 |
| 20260507112021 | 67 | 214 | 4.0 | 6.0 | 0.00 | 0.00 | 0.00 | 70 | 1011.2 |
| 20260507111021 | 67 | 233 | 3.0 | 6.0 | 0.00 | 0.00 | 0.00 | 69 | 1011.4 |
| 20260507110041 | 67 | 202 | 3.0 | 7.0 | 0.00 | 0.00 | 0.00 | 68 | 1011.4 |
| 20260507105020 | 67 | 253 | 4.0 | 6.0 | 0.00 | 0.00 | 0.00 | 68 | 1011.4 |
| 20260507104021 | 67 | 216 | 3.0 | 6.0 | 0.00 | 0.00 | 0.00 | 68 | 1011.5 |
| 20260507103021 | 67 | 245 | 3.0 | 7.0 | 0.00 | 0.00 | 0.00 | 68 | 1011.5 |
| 20260507102021 | 66 | 173 | 4.0 | 8.0 | 0.00 | 0.00 | 0.00 | 70 | 1011.5 |
| 20260507101021 | 66 | 182 | 3.0 | 6.0 | 0.00 | 0.00 | 0.00 | 71 | 1011.5 |
| 20260507100021 | 66 | 152 | 2.0 | 5.0 | 0.00 | 0.00 | 0.00 | 74 | 1011.6 |
| 20260507095100 | 66 | 246 | 2.0 | 5.0 | 0.00 | 0.00 | 0.00 | 74 | 1011.7 |
| 20260507094021 | 65 | 197 | 2.0 | 6.0 | 0.00 | 0.00 | 0.00 | 76 | 1011.7 |
| 20260507093020 | 65 | 295 | 3.0 | 10.0 | 0.00 | 0.00 | 0.00 | 74 | 1011.8 |
| 20260507092020 | 65 | 197 | 3.0 | 5.0 | 0.00 | 0.00 | 0.00 | 73 | 1011.7 |
| 20260507091020 | 65 | 263 | 2.0 | 6.0 | 0.00 | 0.00 | 0.00 | 76 | 1011.8 |
| 20260507090021 | 64 | 294 | 5.0 | 10.0 | 0.00 | 0.00 | 0.00 | 76 | 1011.8 |
| 20260507085042 | 64 | 330 | 4.0 | 9.0 | 0.00 | 0.00 | 0.00 | 75 | 1011.9 |
| 20260507084041 | 63 | 318 | 4.0 | 10.0 | 0.00 | 0.00 | 0.00 | 77 | 1011.8 |
| 20260507083022 | 63 | 329 | 5.0 | 13.0 | 0.00 | 0.00 | 0.00 | 77 | 1011.7 |
| 20260507082021 | 63 | 313 | 3.0 | 11.0 | 0.00 | 0.00 | 0.00 | 78 | 1011.5 |
| 20260507081021 | 63 | 337 | 6.0 | 13.0 | 0.00 | 0.00 | 0.00 | 79 | 1011.4 |
| 20260507080041 | 64 | 314 | 5.0 | 12.0 | 0.00 | 0.00 | 0.00 | 77 | 1011.4 |
| 20260507075021 | 63 | 312 | 3.0 | 12.0 | 0.00 | 0.00 | 0.00 | 78 | 1011.4 |
| 20260507074021 | 63 | 308 | 4.0 | 13.0 | 0.00 | 0.00 | 0.00 | 79 | 1011.3 |
| 20260507073021 | 62 | 319 | 5.0 | 12.0 | 0.00 | 0.00 | 0.00 | 79 | 1011.1 |
| 20260507072101 | 61 | 332 | 5.0 | 12.0 | 0.00 | 0.00 | 0.00 | 80 | 1011.2 |
| 20260507071021 | 61 | 335 | 4.0 | 10.0 | 0.00 | 0.00 | 0.00 | 82 | 1011.2 |